Time,TemperatureF,DewpointF,PressureIn,WindDirection,WindDirectionDegrees,WindSpeedMPH,WindSpeedGustMPH,Humidity,HourlyPrecipIn,Conditions,Clouds,dailyrainin,SoftwareType,DateUTC
2013-01-26 00:05:00,36.0,33.0,30.46,SSW,193,0.0,-999.0,87,-99.99,,,0.00,weatherlink.com 1.10,2013-01-26 07:05:00,
2013-01-26 00:21:00,35.6,33.0,30.46,SSW,193,0.0,-999.0,89,-99.99,,,0.00,weatherlink.com 1.10,2013-01-26 07:21:00,
2013-01-26 00:35:00,35.6,33.0,30.45,SSW,193,0.0,-999.0,90,-99.99,,,0.00,weatherlink.com 1.10,2013-01-26 07:35:00,
2013-01-26 00:50:00,35.5,33.0,30.45,SSW,193,0.0,-999.0,91,-99.99,,,0.00,weatherlink.com 1.10,2013-01-26 07:50:00,
2013-01-26 01:05:00,35.5,33.0,30.43,SSW,193,0.0,-999.0,92,-99.99,,,0.00,weatherlink.com 1.10,2013-01-26 08:05:00,
2013-01-26 01:20:00,35.3,33.0,30.44,SSW,193,0.0,-999.0,92,-99.99,,,0.00,weatherlink.com 1.10,2013-01-26 08:20:00,
2013-01-26 01:35:00,35.3,33.0,30.43,SSW,193,0.0,-999.0,92,-99.99,,,0.00,weatherlink.com 1.10,2013-01-26 08:35:00,
2013-01-26 01:50:00,35.5,33.0,30.40,SSW,193,0.0,-999.0,92,-99.99,,,0.00,weatherlink.com 1.10,2013-01-26 08:50:00,
2013-01-26 02:05:00,35.5,33.0,30.41,SSW,193,0.0,-999.0,91,-99.99,,,0.00,weatherlink.com 1.10,2013-01-26 09:05:00,
2013-01-26 02:20:00,35.6,33.0,30.41,SSW,193,0.0,-999.0,90,-99.99,,,0.00,weatherlink.com 1.10,2013-01-26 09:20:00,
2013-01-26 02:35:00,35.2,33.0,30.42,SSW,193,0.0,-999.0,90,-99.99,,,0.00,weatherlink.com 1.10,2013-01-26 09:35:00,
2013-01-26 02:50:00,34.9,32.0,30.42,SSW,193,0.0,-999.0,90,-99.99,,,0.00,weatherlink.com 1.10,2013-01-26 09:50:00,
2013-01-26 03:05:00,34.7,32.0,30.42,SSW,193,0.0,-999.0,90,-99.99,,,0.00,weatherlink.com 1.10,2013-01-26 10:05:00,
2013-01-26 03:20:00,34.7,32.0,30.41,SSW,193,0.0,-999.0,90,-99.99,,,0.00,weatherlink.com 1.10,2013-01-26 10:20:00,
2013-01-26 03:35:00,35.0,32.0,30.41,SSW,193,0.0,-999.0,89,-99.99,,,0.00,weatherlink.com 1.10,2013-01-26 10:35:00,
2013-01-26 03:50:00,35.2,32.0,30.39,SSW,193,0.0,-999.0,89,-99.99,,,0.00,weatherlink.com 1.10,2013-01-26 10:50:00,
2013-01-26 04:05:00,35.3,32.0,30.37,SSW,193,0.0,-999.0,89,-99.99,,,0.00,weatherlink.com 1.10,2013-01-26 11:05:00,
2013-01-26 04:20:00,35.3,32.0,30.37,SSW,193,0.0,-999.0,89,-99.99,,,0.00,weatherlink.com 1.10,2013-01-26 11:20:00,
2013-01-26 04:34:00,35.5,33.0,30.37,SSW,193,0.0,-999.0,89,-99.99,,,0.00,weatherlink.com 1.10,2013-01-26 11:34:00,
2013-01-26 04:50:00,35.5,33.0,30.36,SSW,193,0.0,-999.0,90,-99.99,,,0.00,weatherlink.com 1.10,2013-01-26 11:50:00,
2013-01-26 05:05:00,35.3,33.0,30.37,SSW,193,0.0,-999.0,90,-99.99,,,0.00,weatherlink.com 1.10,2013-01-26 12:05:00,
2013-01-26 05:19:00,35.2,33.0,30.37,SSW,193,0.0,-999.0,91,-99.99,,,0.00,weatherlink.com 1.10,2013-01-26 12:19:00,
2013-01-26 05:34:00,35.2,33.0,30.36,SSW,193,0.0,-999.0,92,-99.99,,,0.00,weatherlink.com 1.10,2013-01-26 12:34:00,
2013-01-26 05:50:00,35.0,33.0,30.36,SSW,193,0.0,-999.0,93,-99.99,,,0.00,weatherlink.com 1.10,2013-01-26 12:50:00,
2013-01-26 06:05:00,35.0,33.0,30.38,SSW,193,0.0,-999.0,93,-99.99,,,0.00,weatherlink.com 1.10,2013-01-26 13:05:00,
2013-01-26 06:20:00,34.9,33.0,30.37,SSW,193,0.0,-999.0,94,-99.99,,,0.00,weatherlink.com 1.10,2013-01-26 13:20:00,
2013-01-26 06:35:00,34.9,33.0,30.37,SSW,193,0.0,-999.0,94,-99.99,,,0.01,weatherlink.com 1.10,2013-01-26 13:35:00,
2013-01-26 06:50:00,34.4,33.0,30.38,SSW,193,0.0,-999.0,95,-99.99,,,0.02,weatherlink.com 1.10,2013-01-26 13:50:00,
2013-01-26 07:05:00,34.1,33.0,30.39,SSW,193,0.0,-999.0,95,-99.99,,,0.03,weatherlink.com 1.10,2013-01-26 14:05:00,
2013-01-26 07:20:00,33.8,33.0,30.39,SSW,193,0.0,-999.0,95,-99.99,,,0.03,weatherlink.com 1.10,2013-01-26 14:20:00,
2013-01-26 07:35:00,33.2,32.0,30.39,SSW,193,0.0,-999.0,95,-99.99,,,0.03,weatherlink.com 1.10,2013-01-26 14:35:00,
2013-01-26 07:50:00,32.9,32.0,30.39,SSW,193,0.0,-999.0,95,-99.99,,,0.03,weatherlink.com 1.10,2013-01-26 14:50:00,
2013-01-26 08:05:00,32.8,32.0,30.39,SSW,193,0.0,-999.0,96,-99.99,,,0.03,weatherlink.com 1.10,2013-01-26 15:05:00,
2013-01-26 08:20:00,32.8,32.0,30.39,SSW,193,0.0,-999.0,96,-99.99,,,0.03,weatherlink.com 1.10,2013-01-26 15:20:00,
2013-01-26 08:35:00,32.8,32.0,30.38,SSW,193,0.0,-999.0,96,-99.99,,,0.03,weatherlink.com 1.10,2013-01-26 15:35:00,
2013-01-26 08:51:00,33.1,32.0,30.38,SSW,193,0.0,-999.0,96,-99.99,,,0.03,weatherlink.com 1.10,2013-01-26 15:51:00,
2013-01-26 09:05:00,33.2,33.0,30.39,SSW,193,0.0,-999.0,97,-99.99,,,0.03,weatherlink.com 1.10,2013-01-26 16:05:00,
2013-01-26 09:20:00,33.4,32.0,30.39,SSW,193,0.0,-999.0,96,-99.99,,,0.04,weatherlink.com 1.10,2013-01-26 16:20:00,
2013-01-26 09:35:00,33.2,33.0,30.38,SSW,193,0.0,-999.0,97,-99.99,,,0.05,weatherlink.com 1.10,2013-01-26 16:35:00,
2013-01-26 09:50:00,33.5,33.0,30.36,SSW,193,0.0,-999.0,97,-99.99,,,0.06,weatherlink.com 1.10,2013-01-26 16:50:00,
2013-01-26 10:05:00,35.2,35.0,30.36,SSW,193,0.0,-999.0,98,-99.99,,,0.07,weatherlink.com 1.10,2013-01-26 17:05:00,
2013-01-26 10:19:00,36.0,36.0,30.34,SSW,193,0.0,-999.0,98,-99.99,,,0.09,weatherlink.com 1.10,2013-01-26 17:19:00,
2013-01-26 10:35:00,34.6,34.0,30.36,SSW,193,0.0,-999.0,96,-99.99,,,0.11,weatherlink.com 1.10,2013-01-26 17:35:00,
2013-01-26 10:49:00,34.6,34.0,30.36,SSW,193,0.0,-999.0,97,-99.99,,,0.12,weatherlink.com 1.10,2013-01-26 17:49:00,
2013-01-26 11:04:00,34.7,34.0,30.34,SSW,193,0.0,-999.0,97,-99.99,,,0.13,weatherlink.com 1.10,2013-01-26 18:04:00,
2013-01-26 11:19:00,35.5,35.0,30.34,SSW,193,0.0,-999.0,96,-99.99,,,0.15,weatherlink.com 1.10,2013-01-26 18:19:00,
2013-01-26 11:34:00,35.5,35.0,30.32,SSW,193,0.0,-999.0,96,-99.99,,,0.16,weatherlink.com 1.10,2013-01-26 18:34:00,
2013-01-26 11:49:00,35.2,34.0,30.32,SSW,193,0.0,-999.0,96,-99.99,,,0.17,weatherlink.com 1.10,2013-01-26 18:49:00,
2013-01-26 12:04:00,34.9,34.0,30.30,SSW,193,0.0,-999.0,96,-99.99,,,0.19,weatherlink.com 1.10,2013-01-26 19:04:00,
2013-01-26 12:19:00,35.3,34.0,30.29,SSW,193,0.0,-999.0,96,-99.99,,,0.21,weatherlink.com 1.10,2013-01-26 19:19:00,
2013-01-26 12:34:00,35.3,35.0,30.28,SSW,193,0.0,-999.0,97,-99.99,,,0.24,weatherlink.com 1.10,2013-01-26 19:34:00,
2013-01-26 12:50:00,35.5,35.0,30.25,SSW,193,0.0,-999.0,97,-99.99,,,0.26,weatherlink.com 1.10,2013-01-26 19:50:00,
2013-01-26 13:05:00,35.6,35.0,30.25,SSW,193,0.0,-999.0,97,-99.99,,,0.29,weatherlink.com 1.10,2013-01-26 20:05:00,
2013-01-26 13:19:00,35.3,34.0,30.26,SSW,193,0.0,-999.0,96,-99.99,,,0.32,weatherlink.com 1.10,2013-01-26 20:19:00,
2013-01-26 13:34:00,34.6,34.0,30.25,SSW,193,0.0,-999.0,96,-99.99,,,0.34,weatherlink.com 1.10,2013-01-26 20:34:00,
2013-01-26 13:49:00,34.3,33.0,30.24,SSW,193,0.0,-999.0,96,-99.99,,,0.36,weatherlink.com 1.10,2013-01-26 20:49:00,
2013-01-26 14:05:00,34.3,34.0,30.25,SSW,193,0.0,-999.0,97,-99.99,,,0.39,weatherlink.com 1.10,2013-01-26 21:05:00,
2013-01-26 14:19:00,34.4,33.0,30.24,SSW,193,0.0,-999.0,96,-99.99,,,0.40,weatherlink.com 1.10,2013-01-26 21:19:00,
2013-01-26 14:34:00,34.1,33.0,30.24,SSW,193,0.0,-999.0,96,-99.99,,,0.42,weatherlink.com 1.10,2013-01-26 21:34:00,
2013-01-26 14:49:00,34.1,33.0,30.23,SSW,193,0.0,-999.0,96,-99.99,,,0.43,weatherlink.com 1.10,2013-01-26 21:49:00,
2013-01-26 15:04:00,33.7,33.0,30.23,SSW,193,0.0,-999.0,96,-99.99,,,0.45,weatherlink.com 1.10,2013-01-26 22:04:00,
2013-01-26 15:19:00,33.7,33.0,30.22,SSW,193,0.0,-999.0,96,-99.99,,,0.46,weatherlink.com 1.10,2013-01-26 22:19:00,
2013-01-26 15:35:00,33.5,33.0,30.21,SSW,193,0.0,-999.0,96,-99.99,,,0.48,weatherlink.com 1.10,2013-01-26 22:35:00,
2013-01-26 15:50:00,33.5,33.0,30.21,SSW,193,0.0,-999.0,96,-99.99,,,0.50,weatherlink.com 1.10,2013-01-26 22:50:00,
2013-01-26 16:05:00,33.4,32.0,30.19,SSW,193,0.0,-999.0,96,-99.99,,,0.51,weatherlink.com 1.10,2013-01-26 23:05:00,
2013-01-26 16:20:00,33.1,32.0,30.20,SSW,193,0.0,-999.0,96,-99.99,,,0.51,weatherlink.com 1.10,2013-01-26 23:20:00,
2013-01-26 16:35:00,32.9,32.0,30.20,SSW,193,0.0,-999.0,97,-99.99,,,0.52,weatherlink.com 1.10,2013-01-26 23:35:00,
2013-01-26 16:50:00,32.9,32.0,30.20,SSW,193,0.0,-999.0,97,-99.99,,,0.52,weatherlink.com 1.10,2013-01-26 23:50:00,
2013-01-26 17:05:00,32.9,32.0,30.20,SSW,193,0.0,-999.0,97,-99.99,,,0.53,weatherlink.com 1.10,2013-01-27 00:05:00,
2013-01-26 17:20:00,32.8,32.0,30.20,SSW,193,0.0,-999.0,97,-99.99,,,0.53,weatherlink.com 1.10,2013-01-27 00:20:00,
2013-01-26 17:35:00,32.7,32.0,30.21,SSW,193,0.0,-999.0,97,-99.99,,,0.54,weatherlink.com 1.10,2013-01-27 00:35:00,
2013-01-26 17:50:00,32.7,32.0,30.21,SSW,193,0.0,-999.0,97,-99.99,,,0.54,weatherlink.com 1.10,2013-01-27 00:50:00,
2013-01-26 18:05:00,32.7,32.0,30.21,SSW,193,0.0,-999.0,97,-99.99,,,0.54,weatherlink.com 1.10,2013-01-27 01:05:00,
2013-01-26 18:20:00,32.7,32.0,30.20,SSW,193,0.0,-999.0,97,-99.99,,,0.54,weatherlink.com 1.10,2013-01-27 01:20:00,
2013-01-26 18:35:00,32.5,32.0,30.20,SSW,193,0.0,-999.0,97,-99.99,,,0.54,weatherlink.com 1.10,2013-01-27 01:35:00,
2013-01-26 18:50:00,32.5,32.0,30.20,SSW,193,0.0,-999.0,98,-99.99,,,0.54,weatherlink.com 1.10,2013-01-27 01:50:00,
2013-01-26 19:06:00,32.5,32.0,30.22,SSW,193,0.0,-999.0,98,-99.99,,,0.55,weatherlink.com 1.10,2013-01-27 02:06:00,
2013-01-26 19:20:00,32.5,32.0,30.22,SSW,193,0.0,-999.0,98,-99.99,,,0.55,weatherlink.com 1.10,2013-01-27 02:20:00,
2013-01-26 19:35:00,32.5,32.0,30.22,SSW,193,0.0,-999.0,98,-99.99,,,0.55,weatherlink.com 1.10,2013-01-27 02:35:00,
2013-01-26 19:50:00,32.5,32.0,30.24,SSW,193,0.0,-999.0,98,-99.99,,,0.56,weatherlink.com 1.10,2013-01-27 02:50:00,
2013-01-26 20:05:00,32.4,32.0,30.23,SSW,193,0.0,-999.0,98,-99.99,,,0.57,weatherlink.com 1.10,2013-01-27 03:05:00,
2013-01-26 20:21:00,32.5,32.0,30.20,SSW,193,0.0,-999.0,98,-99.99,,,0.58,weatherlink.com 1.10,2013-01-27 03:21:00,
2013-01-26 20:36:00,32.5,32.0,30.20,SSW,193,0.0,-999.0,98,-99.99,,,0.59,weatherlink.com 1.10,2013-01-27 03:36:00,
2013-01-26 20:50:00,32.9,32.0,30.20,SSW,193,0.0,-999.0,98,-99.99,,,0.61,weatherlink.com 1.10,2013-01-27 03:50:00,
2013-01-26 21:05:00,33.5,33.0,30.18,SSW,193,0.0,-999.0,98,-99.99,,,0.63,weatherlink.com 1.10,2013-01-27 04:05:00,
2013-01-26 21:21:00,33.4,33.0,30.20,SSW,193,0.0,-999.0,98,-99.99,,,0.65,weatherlink.com 1.10,2013-01-27 04:21:00,
2013-01-26 21:36:00,33.4,33.0,30.20,SSW,193,0.0,-999.0,98,-99.99,,,0.66,weatherlink.com 1.10,2013-01-27 04:36:00,
2013-01-26 21:50:00,33.1,33.0,30.21,SSW,193,1.0,-999.0,98,-99.99,,,0.67,weatherlink.com 1.10,2013-01-27 04:50:00,
2013-01-26 22:05:00,33.2,33.0,30.19,SW,230,2.0,-999.0,98,-99.99,,,0.68,weatherlink.com 1.10,2013-01-27 05:05:00,
2013-01-26 22:20:00,33.1,33.0,30.19,SW,231,0.0,-999.0,98,-99.99,,,0.69,weatherlink.com 1.10,2013-01-27 05:20:00,
2013-01-26 22:35:00,33.1,33.0,30.19,SW,231,0.0,-999.0,98,-99.99,,,0.70,weatherlink.com 1.10,2013-01-27 05:35:00,
2013-01-26 22:51:00,33.4,33.0,30.19,SW,231,0.0,-999.0,98,-99.99,,,0.71,weatherlink.com 1.10,2013-01-27 05:51:00,
2013-01-26 23:06:00,32.8,32.0,30.20,SW,231,0.0,-999.0,98,-99.99,,,0.72,weatherlink.com 1.10,2013-01-27 06:06:00,
2013-01-26 23:19:00,32.9,32.0,30.20,SW,231,0.0,-999.0,98,-99.99,,,0.72,weatherlink.com 1.10,2013-01-27 06:19:00,
2013-01-26 23:34:00,32.5,32.0,30.20,SW,231,0.0,-999.0,98,-99.99,,,0.72,weatherlink.com 1.10,2013-01-27 06:34:00,
2013-01-26 23:49:00,32.4,32.0,30.22,SW,231,1.0,-999.0,98,-99.99,,,0.00,weatherlink.com 1.10,2013-01-27 06:49:00,